Time,TemperatureF,DewpointF,PressureIn,WindDirection,WindDirectionDegrees,WindSpeedMPH,WindSpeedGustMPH,Humidity,HourlyPrecipIn,Conditions,Clouds,dailyrainin,SoftwareType,DateUTC
2013-01-21 00:04:00,40.0,25.0,30.04,NNE,31,3.0,8.0,55,0.00,,,0.00,,2013-01-21 05:04:00,
2013-01-21 00:12:00,40.0,25.0,30.04,NNE,31,3.0,8.0,55,0.00,,,0.00,,2013-01-21 05:12:00,
2013-01-21 00:22:00,40.0,26.0,30.04,NE,54,3.0,9.0,56,0.00,,,0.00,,2013-01-21 05:22:00,
2013-01-21 00:34:00,40.0,26.0,30.03,NNE,22,3.0,8.0,56,0.00,,,0.00,,2013-01-21 05:34:00,
2013-01-21 00:42:00,40.0,26.0,30.03,NNE,22,3.0,8.0,56,0.00,,,0.00,,2013-01-21 05:42:00,
2013-01-21 00:53:00,39.0,25.0,30.03,NNE,28,2.0,7.0,57,0.00,,,0.00,,2013-01-21 05:53:00,
2013-01-21 01:03:00,39.0,25.0,30.03,NE,41,5.0,9.0,56,0.00,,,0.00,,2013-01-21 06:03:00,
2013-01-21 01:13:00,39.0,25.0,30.03,NE,41,5.0,9.0,56,0.00,,,0.00,,2013-01-21 06:13:00,
2013-01-21 01:23:00,39.0,25.0,30.03,NE,40,3.0,8.0,56,0.00,,,0.00,,2013-01-21 06:23:00,
2013-01-21 01:33:00,39.0,25.0,30.03,NNE,12,3.0,9.0,56,0.00,,,0.00,,2013-01-21 06:33:00,
2013-01-21 01:43:00,39.0,25.0,30.03,NNE,12,3.0,9.0,56,0.00,,,0.00,,2013-01-21 06:43:00,
2013-01-21 01:53:00,39.0,25.0,30.03,NNE,18,3.0,6.0,56,0.00,,,0.00,,2013-01-21 06:53:00,
2013-01-21 02:03:00,39.0,25.0,30.03,NNE,23,3.0,6.0,57,0.00,,,0.00,,2013-01-21 07:03:00,
2013-01-21 02:13:00,39.0,25.0,30.03,NNE,23,3.0,6.0,57,0.00,,,0.00,,2013-01-21 07:13:00,
2013-01-21 02:22:00,39.0,24.0,30.04,WNW,299,2.0,7.0,55,0.00,,,0.00,,2013-01-21 07:22:00,
2013-01-21 02:33:00,39.0,25.0,30.05,NW,325,2.0,6.0,57,0.00,,,0.00,,2013-01-21 07:33:00,
2013-01-21 02:42:00,39.0,25.0,30.05,NW,325,2.0,6.0,57,0.00,,,0.00,,2013-01-21 07:42:00,
2013-01-21 02:53:00,38.0,24.0,30.05,NNE,19,3.0,8.0,56,0.00,,,0.00,,2013-01-21 07:53:00,
2013-01-21 03:03:00,38.0,24.0,30.05,NNE,23,1.0,8.0,56,0.00,,,0.00,,2013-01-21 08:03:00,
2013-01-21 03:14:00,38.0,24.0,30.05,NNE,23,1.0,8.0,56,0.00,,,0.00,,2013-01-21 08:14:00,
2013-01-21 03:23:00,38.0,23.0,30.05,North,6,2.0,6.0,55,0.00,,,0.00,,2013-01-21 08:23:00,
2013-01-21 03:33:00,37.0,23.0,30.05,NE,55,3.0,7.0,56,0.00,,,0.00,,2013-01-21 08:33:00,
2013-01-21 03:42:00,37.0,23.0,30.05,NE,55,3.0,7.0,56,0.00,,,0.00,,2013-01-21 08:42:00,
2013-01-21 03:53:00,37.0,23.0,30.04,NW,316,2.0,15.0,57,0.00,,,0.00,,2013-01-21 08:53:00,
2013-01-21 04:03:00,36.0,22.0,30.03,North,4,3.0,8.0,57,0.00,,,0.00,,2013-01-21 09:03:00,
2013-01-21 04:12:00,36.0,22.0,30.03,North,4,3.0,8.0,57,0.00,,,0.00,,2013-01-21 09:12:00,
2013-01-21 04:23:00,36.0,22.0,30.03,NW,315,2.0,8.0,57,0.00,,,0.00,,2013-01-21 09:23:00,
2013-01-21 04:33:00,36.0,22.0,30.03,WSW,255,1.0,8.0,57,0.00,,,0.00,,2013-01-21 09:33:00,
2013-01-21 04:42:00,36.0,22.0,30.03,WSW,255,1.0,8.0,57,0.00,,,0.00,,2013-01-21 09:42:00,
2013-01-21 04:53:00,36.0,22.0,30.03,NNE,17,0.0,2.0,57,0.00,,,0.00,,2013-01-21 09:53:00,
2013-01-21 05:02:00,36.0,22.0,30.02,North,6,0.0,2.0,56,0.00,,,0.00,,2013-01-21 10:02:00,
2013-01-21 05:12:00,36.0,22.0,30.02,North,6,0.0,2.0,56,0.00,,,0.00,,2013-01-21 10:12:00,
2013-01-21 05:22:00,36.0,22.0,30.01,SE,144,0.0,2.0,56,0.00,,,0.00,,2013-01-21 10:22:00,
2013-01-21 05:32:00,36.0,22.0,30.01,East,94,3.0,8.0,56,0.00,,,0.00,,2013-01-21 10:32:00,
2013-01-21 05:43:00,36.0,22.0,30.01,East,94,3.0,8.0,56,0.00,,,0.00,,2013-01-21 10:43:00,
2013-01-21 05:53:00,35.0,20.0,30.01,SSE,153,2.0,6.0,55,0.00,,,0.00,,2013-01-21 10:53:00,
2013-01-21 06:03:00,36.0,21.0,30.01,ESE,114,1.0,8.0,55,0.00,,,0.00,,2013-01-21 11:03:00,
2013-01-21 06:13:00,36.0,21.0,30.01,ESE,114,1.0,8.0,55,0.00,,,0.00,,2013-01-21 11:13:00,
2013-01-21 06:23:00,36.0,21.0,30.01,WSW,241,0.0,7.0,55,0.00,,,0.00,,2013-01-21 11:23:00,
2013-01-21 06:33:00,36.0,21.0,30.00,NNW,348,1.0,8.0,55,0.00,,,0.00,,2013-01-21 11:33:00,
2013-01-21 06:43:00,36.0,21.0,30.00,NNW,348,1.0,8.0,55,0.00,,,0.00,,2013-01-21 11:43:00,
2013-01-21 06:53:00,36.0,22.0,30.00,NW,304,0.0,5.0,56,0.00,,,0.00,,2013-01-21 11:53:00,
2013-01-21 07:02:00,35.0,21.0,30.00,NE,35,1.0,6.0,57,0.00,,,0.00,,2013-01-21 12:02:00,
2013-01-21 07:12:00,35.0,21.0,30.00,NE,35,1.0,6.0,57,0.00,,,0.00,,2013-01-21 12:12:00,
2013-01-21 07:22:00,35.0,22.0,30.01,NE,34,0.0,2.0,59,0.00,,,0.00,,2013-01-21 12:22:00,
2013-01-21 07:33:00,34.0,21.0,30.00,NE,34,0.0,0.0,59,0.00,,,0.00,,2013-01-21 12:33:00,
2013-01-21 07:42:00,34.0,21.0,30.00,NE,34,0.0,0.0,59,0.00,,,0.00,,2013-01-21 12:42:00,
2013-01-21 07:53:00,35.0,22.0,30.00,NE,34,0.0,0.0,59,0.00,,,0.00,,2013-01-21 12:53:00,
2013-01-21 08:03:00,34.0,22.0,30.00,ENE,65,1.0,2.0,60,0.00,,,0.00,,2013-01-21 13:03:00,
2013-01-21 08:13:00,34.0,22.0,30.00,ENE,65,1.0,2.0,60,0.00,,,0.00,,2013-01-21 13:13:00,
2013-01-21 08:23:00,34.0,22.0,30.00,East,92,0.0,3.0,60,0.00,,,0.00,,2013-01-21 13:23:00,
2013-01-21 08:33:00,35.0,23.0,30.00,SE,133,1.0,2.0,60,0.00,,,0.00,,2013-01-21 13:33:00,
2013-01-21 08:43:00,35.0,23.0,30.00,SE,133,1.0,2.0,60,0.00,,,0.00,,2013-01-21 13:43:00,
2013-01-21 08:54:00,36.0,23.0,30.00,ESE,112,0.0,3.0,58,0.00,,,0.00,,2013-01-21 13:54:00,
2013-01-21 09:03:00,37.0,24.0,30.01,SSE,147,1.0,5.0,60,0.00,,,0.00,,2013-01-21 14:03:00,
2013-01-21 09:12:00,37.0,24.0,30.01,SSE,147,1.0,5.0,60,0.00,,,0.00,,2013-01-21 14:12:00,
2013-01-21 09:23:00,38.0,25.0,30.01,SSE,163,1.0,5.0,58,0.00,,,0.00,,2013-01-21 14:23:00,
2013-01-21 09:32:00,39.0,25.0,30.01,SSE,155,0.0,3.0,58,0.00,,,0.00,,2013-01-21 14:32:00,
2013-01-21 09:43:00,39.0,25.0,30.01,SSE,155,0.0,3.0,58,0.00,,,0.00,,2013-01-21 14:43:00,
2013-01-21 09:53:00,40.0,26.0,30.01,ESE,111,2.0,7.0,56,0.00,,,0.00,,2013-01-21 14:53:00,
2013-01-21 10:03:00,40.0,26.0,30.01,ESE,111,2.0,7.0,56,0.00,,,0.00,,2013-01-21 15:03:00,
2013-01-21 10:13:00,40.0,26.0,30.01,ESE,111,2.0,7.0,56,0.00,,,0.00,,2013-01-21 15:13:00,
2013-01-21 10:23:00,43.0,28.0,30.01,ENE,66,4.0,7.0,54,0.00,,,0.00,,2013-01-21 15:23:00,
2013-01-21 10:33:00,44.0,28.0,30.01,ENE,60,3.0,6.0,53,0.00,,,0.00,,2013-01-21 15:33:00,
2013-01-21 10:43:00,44.0,28.0,30.01,ENE,60,3.0,6.0,53,0.00,,,0.00,,2013-01-21 15:43:00,
2013-01-21 10:53:00,45.0,27.0,30.01,North,11,2.0,5.0,50,0.00,,,0.00,,2013-01-21 15:53:00,
2013-01-21 11:03:00,47.0,28.0,30.01,NW,308,2.0,6.0,48,0.00,,,0.00,,2013-01-21 16:03:00,
2013-01-21 11:12:00,47.0,28.0,30.01,NW,308,2.0,6.0,48,0.00,,,0.00,,2013-01-21 16:12:00,
2013-01-21 11:23:00,49.0,29.0,30.00,WNW,290,6.0,12.0,46,0.00,,,0.00,,2013-01-21 16:23:00,
2013-01-21 11:33:00,50.0,29.0,29.99,North,356,5.0,10.0,44,0.00,,,0.00,,2013-01-21 16:33:00,
2013-01-21 11:43:00,50.0,29.0,29.99,North,356,5.0,10.0,44,0.00,,,0.00,,2013-01-21 16:43:00,
2013-01-21 11:53:00,51.0,30.0,29.98,NW,309,3.0,9.0,44,0.00,,,0.00,,2013-01-21 16:53:00,
2013-01-21 12:03:00,51.0,29.0,29.96,SW,226,6.0,17.0,43,0.00,,,0.00,,2013-01-21 17:03:00,
2013-01-21 12:12:00,51.0,29.0,29.96,SW,226,6.0,17.0,43,0.00,,,0.00,,2013-01-21 17:12:00,
2013-01-21 12:23:00,49.0,27.0,29.94,WSW,247,7.0,15.0,43,0.00,,,0.00,,2013-01-21 17:23:00,
2013-01-21 12:33:00,50.0,27.0,29.93,West,265,9.0,20.0,40,0.00,,,0.00,,2013-01-21 17:33:00,
2013-01-21 12:43:00,50.0,27.0,29.93,West,265,9.0,20.0,40,0.00,,,0.00,,2013-01-21 17:43:00,
2013-01-21 12:53:00,52.0,28.0,29.93,WNW,283,6.0,16.0,39,0.00,,,0.00,,2013-01-21 17:53:00,
2013-01-21 13:03:00,53.0,29.0,29.91,WNW,290,5.0,16.0,39,0.00,,,0.00,,2013-01-21 18:03:00,
2013-01-21 13:12:00,53.0,29.0,29.91,WNW,290,5.0,16.0,39,0.00,,,0.00,,2013-01-21 18:12:00,
2013-01-21 13:23:00,54.0,28.0,29.90,West,265,4.0,13.0,37,0.00,,,0.00,,2013-01-21 18:23:00,
2013-01-21 13:33:00,55.0,29.0,29.88,WNW,284,7.0,15.0,36,0.00,,,0.00,,2013-01-21 18:33:00,
2013-01-21 13:42:00,55.0,29.0,29.88,WNW,284,7.0,15.0,36,0.00,,,0.00,,2013-01-21 18:42:00,
2013-01-21 13:53:00,56.0,29.0,29.87,SW,228,7.0,16.0,35,0.00,,,0.00,,2013-01-21 18:53:00,
2013-01-21 14:03:00,55.0,26.0,29.86,WNW,282,6.0,25.0,33,0.00,,,0.00,,2013-01-21 19:03:00,
2013-01-21 14:12:00,54.0,25.0,29.85,WNW,292,7.0,23.0,32,0.00,,,0.00,,2013-01-21 19:12:00,
2013-01-21 14:22:00,54.0,25.0,29.85,WNW,292,7.0,23.0,32,0.00,,,0.00,,2013-01-21 19:22:00,
2013-01-21 14:33:00,55.0,26.0,29.86,West,281,7.0,24.0,32,0.00,,,0.00,,2013-01-21 19:33:00,
2013-01-21 14:43:00,55.0,26.0,29.86,West,281,7.0,24.0,32,0.00,,,0.00,,2013-01-21 19:43:00,
2013-01-21 14:53:00,54.0,25.0,29.85,West,278,11.0,30.0,32,0.00,,,0.00,,2013-01-21 19:53:00,
2013-01-21 15:03:00,52.0,25.0,29.84,SW,234,11.0,30.0,35,0.00,,,0.00,,2013-01-21 20:03:00,
2013-01-21 15:12:00,52.0,25.0,29.84,SW,234,11.0,30.0,35,0.00,,,0.00,,2013-01-21 20:12:00,
2013-01-21 15:23:00,53.0,27.0,29.84,WSW,237,7.0,20.0,36,0.00,,,0.00,,2013-01-21 20:23:00,
2013-01-21 15:33:00,54.0,28.0,29.83,NE,47,5.0,22.0,36,0.00,,,0.00,,2013-01-21 20:33:00,
2013-01-21 15:43:00,54.0,28.0,29.83,NE,47,5.0,22.0,36,0.00,,,0.00,,2013-01-21 20:43:00,
2013-01-21 15:53:00,53.0,27.0,29.83,West,264,7.0,25.0,36,0.00,,,0.00,,2013-01-21 20:53:00,
2013-01-21 16:04:00,51.0,26.0,29.83,West,278,10.0,30.0,38,0.00,,,0.00,,2013-01-21 21:04:00,
2013-01-21 16:12:00,51.0,26.0,29.83,West,278,10.0,30.0,38,0.00,,,0.00,,2013-01-21 21:12:00,
2013-01-21 16:23:00,50.0,26.0,29.83,NNW,330,6.0,22.0,39,0.00,,,0.00,,2013-01-21 21:23:00,
2013-01-21 16:33:00,49.0,26.0,29.83,West,271,14.0,30.0,40,0.00,,,0.00,,2013-01-21 21:33:00,
2013-01-21 16:43:00,49.0,26.0,29.83,West,271,14.0,30.0,40,0.00,,,0.00,,2013-01-21 21:43:00,
2013-01-21 16:54:00,47.0,25.0,29.84,NNE,21,7.0,24.0,42,0.00,,,0.00,,2013-01-21 21:54:00,
2013-01-21 17:03:00,46.0,25.0,29.84,West,264,10.0,28.0,43,0.00,,,0.00,,2013-01-21 22:03:00,
2013-01-21 17:13:00,46.0,25.0,29.84,West,264,10.0,28.0,43,0.00,,,0.00,,2013-01-21 22:13:00,
2013-01-21 17:23:00,45.0,24.0,29.84,West,262,9.0,31.0,44,0.00,,,0.00,,2013-01-21 22:23:00,
2013-01-21 17:33:00,44.0,23.0,29.84,West,272,6.0,20.0,44,0.00,,,0.00,,2013-01-21 22:33:00,
2013-01-21 17:43:00,44.0,23.0,29.84,West,272,6.0,20.0,44,0.00,,,0.00,,2013-01-21 22:43:00,
2013-01-21 17:53:00,44.0,23.0,29.84,NNW,333,9.0,22.0,43,0.00,,,0.00,,2013-01-21 22:53:00,
2013-01-21 18:03:00,43.0,22.0,29.85,West,266,5.0,21.0,43,0.00,,,0.00,,2013-01-21 23:03:00,
2013-01-21 18:13:00,43.0,22.0,29.85,West,266,5.0,21.0,43,0.00,,,0.00,,2013-01-21 23:13:00,
2013-01-21 18:23:00,43.0,23.0,29.85,NW,316,2.0,15.0,45,0.00,,,0.00,,2013-01-21 23:23:00,
2013-01-21 18:33:00,42.0,21.0,29.86,NE,39,3.0,15.0,43,0.00,,,0.00,,2013-01-21 23:33:00,
2013-01-21 18:42:00,42.0,21.0,29.86,NE,39,3.0,15.0,43,0.00,,,0.00,,2013-01-21 23:42:00,
2013-01-21 18:53:00,41.0,19.0,29.86,NNE,23,6.0,20.0,41,0.00,,,0.00,,2013-01-21 23:53:00,
2013-01-21 19:03:00,41.0,18.0,29.86,NNW,340,6.0,18.0,39,0.00,,,0.00,,2013-01-22 00:03:00,
2013-01-21 19:12:00,41.0,18.0,29.86,NNW,340,6.0,18.0,39,0.00,,,0.00,,2013-01-22 00:12:00,
2013-01-21 19:22:00,40.0,17.0,29.87,North,358,5.0,14.0,39,0.00,,,0.00,,2013-01-22 00:22:00,
2013-01-21 19:33:00,40.0,18.0,29.87,WSW,253,3.0,12.0,40,0.00,,,0.00,,2013-01-22 00:33:00,
2013-01-21 19:43:00,40.0,18.0,29.87,WSW,253,3.0,12.0,40,0.00,,,0.00,,2013-01-22 00:43:00,
2013-01-21 19:53:00,40.0,18.0,29.87,West,274,3.0,12.0,40,0.00,,,0.00,,2013-01-22 00:53:00,
2013-01-21 20:02:00,39.0,17.0,29.87,North,8,7.0,18.0,40,0.00,,,0.00,,2013-01-22 01:02:00,
2013-01-21 20:12:00,39.0,17.0,29.87,North,8,7.0,18.0,40,0.00,,,0.00,,2013-01-22 01:12:00,
2013-01-21 20:23:00,38.0,16.0,29.88,North,3,6.0,18.0,40,0.00,,,0.00,,2013-01-22 01:23:00,
2013-01-21 20:33:00,37.0,15.0,29.88,NNE,23,6.0,14.0,40,0.00,,,0.00,,2013-01-22 01:33:00,
2013-01-21 20:42:00,37.0,15.0,29.88,NNE,23,6.0,14.0,40,0.00,,,0.00,,2013-01-22 01:42:00,
2013-01-21 20:53:00,37.0,15.0,29.88,NE,38,7.0,15.0,40,0.00,,,0.00,,2013-01-22 01:53:00,
2013-01-21 21:02:00,36.0,15.0,29.88,NNE,22,6.0,16.0,41,0.00,,,0.00,,2013-01-22 02:02:00,
2013-01-21 21:12:00,36.0,15.0,29.88,NNE,22,6.0,16.0,41,0.00,,,0.00,,2013-01-22 02:12:00,
2013-01-21 21:22:00,36.0,15.0,29.89,NNE,33,5.0,15.0,42,0.00,,,0.00,,2013-01-22 02:22:00,
2013-01-21 21:32:00,35.0,14.0,29.89,ENE,61,4.0,22.0,42,0.00,,,0.00,,2013-01-22 02:32:00,
2013-01-21 21:43:00,35.0,14.0,29.89,ENE,61,4.0,22.0,42,0.00,,,0.00,,2013-01-22 02:43:00,
2013-01-21 21:53:00,35.0,14.0,29.90,NE,34,4.0,18.0,42,0.00,,,0.00,,2013-01-22 02:53:00,
2013-01-21 22:03:00,34.0,13.0,29.89,NNW,330,9.0,22.0,42,0.00,,,0.00,,2013-01-22 03:03:00,
2013-01-21 22:12:00,34.0,13.0,29.89,NNW,330,9.0,22.0,42,0.00,,,0.00,,2013-01-22 03:12:00,
2013-01-21 22:22:00,33.0,12.0,29.90,North,5,10.0,17.0,41,0.00,,,0.00,,2013-01-22 03:22:00,
2013-01-21 22:32:00,33.0,12.0,29.91,NE,46,4.0,15.0,42,0.00,,,0.00,,2013-01-22 03:32:00,
2013-01-21 22:42:00,33.0,12.0,29.91,NE,46,4.0,15.0,42,0.00,,,0.00,,2013-01-22 03:42:00,
2013-01-21 22:53:00,32.0,12.0,29.91,North,8,6.0,20.0,42,0.00,,,0.00,,2013-01-22 03:53:00,
2013-01-21 23:03:00,32.0,12.0,29.92,NNE,17,6.0,17.0,43,0.00,,,0.00,,2013-01-22 04:03:00,
2013-01-21 23:12:00,32.0,12.0,29.92,NNE,17,6.0,17.0,43,0.00,,,0.00,,2013-01-22 04:12:00,
2013-01-21 23:22:00,32.0,12.0,29.93,North,10,6.0,18.0,43,0.00,,,0.00,,2013-01-22 04:22:00,
2013-01-21 23:33:00,31.0,12.0,29.93,NNE,26,5.0,16.0,44,0.00,,,0.00,,2013-01-22 04:33:00,
2013-01-21 23:42:00,31.0,12.0,29.93,NNE,26,5.0,16.0,44,0.00,,,0.00,,2013-01-22 04:42:00,
2013-01-21 23:52:00,31.0,12.0,29.93,North,6,7.0,16.0,44,0.00,,,0.00,,2013-01-22 04:52:00,